TimeMST,TemperatureF,Dew PointF,Humidity,Sea Level PressureIn,VisibilityMPH,Wind Direction,Wind SpeedMPH,Gust SpeedMPH,PrecipitationIn,Events,Conditions,WindDirDegrees,DateUTC
12:52 AM,3.9,-0.0,84,30.73,7.0,North,8.1,-,N/A,,Clear,10,2013-01-17 07:52:00
1:52 AM,1.0,-2.9,83,30.74,7.0,NE,6.9,-,N/A,,Clear,50,2013-01-17 08:52:00
2:52 AM,3.0,-0.9,84,30.74,7.0,NE,5.8,-,N/A,,Clear,50,2013-01-17 09:52:00
3:52 AM,5.0,1.9,87,30.72,5.0,North,5.8,-,N/A,,Clear,360,2013-01-17 10:52:00
4:52 AM,3.0,-0.9,84,30.73,7.0,NNW,9.2,-,N/A,,Clear,330,2013-01-17 11:52:00
5:52 AM,1.9,-2.9,80,30.77,3.0,NNE,4.6,-,N/A,,Haze,20,2013-01-17 12:52:00
6:07 AM,-0.4,-2.2,92,30.54,1.0,ENE,3.5,-,N/A,,Mist,60,2013-01-17 13:07:00
6:26 AM,1.4,-4.0,78,30.54,0.5,Calm,Calm,-,N/A,,Haze,0,2013-01-17 13:26:00
7:02 AM,3.2,-0.4,85,30.54,2.0,NNE,5.8,-,0.00,Snow,Light Snow,30,2013-01-17 14:02:00
7:11 AM,1.4,-2.2,85,30.54,0.8,North,5.8,-,0.00,,Overcast,350,2013-01-17 14:11:00
7:24 AM,1.4,-2.2,85,30.55,1.5,NNW,5.8,-,0.00,,Overcast,340,2013-01-17 14:24:00
7:31 AM,1.4,-2.2,85,30.55,4.0,NNW,6.9,-,0.00,,Mostly Cloudy,330,2013-01-17 14:31:00
7:38 AM,1.4,-2.2,85,30.55,4.0,NNW,8.1,-,0.00,,Scattered Clouds,340,2013-01-17 14:38:00
8:03 AM,-4.0,-7.6,85,30.57,0.2,SE,5.8,-,N/A,Fog,Light Freezing Fog,140,2013-01-17 15:03:00
8:52 AM,-0.0,-2.0,91,30.85,2.0,Calm,Calm,-,N/A,,Overcast,0,2013-01-17 15:52:00
9:07 AM,-0.4,-2.2,92,30.58,1.5,South,3.5,-,N/A,,Overcast,190,2013-01-17 16:07:00
9:17 AM,-0.4,-2.2,92,30.59,1.8,South,3.5,-,N/A,,Mostly Cloudy,170,2013-01-17 16:17:00
9:32 AM,1.4,-0.4,92,30.59,2.0,South,3.5,-,N/A,,Scattered Clouds,180,2013-01-17 16:32:00
9:52 AM,3.9,1.9,91,30.85,4.0,Calm,Calm,-,N/A,,Partly Cloudy,0,2013-01-17 16:52:00
10:52 AM,12.9,8.1,81,30.78,6.0,NNE,4.6,-,0.00,Snow,Light Snow,30,2013-01-17 17:52:00
11:52 AM,14.0,8.1,77,30.76,10.0,NE,8.1,-,0.00,,Clear,40,2013-01-17 18:52:00
12:52 PM,16.0,9.0,74,30.71,10.0,NNE,10.4,-,0.00,,Clear,30,2013-01-17 19:52:00
1:52 PM,18.0,10.0,71,30.69,10.0,NE,9.2,-,N/A,,Clear,50,2013-01-17 20:52:00
2:52 PM,19.0,12.0,74,30.67,10.0,NE,10.4,-,0.00,,Clear,40,2013-01-17 21:52:00
3:52 PM,19.0,12.0,74,30.66,10.0,NE,9.2,-,N/A,,Clear,50,2013-01-17 22:52:00
4:52 PM,17.1,10.0,74,30.68,10.0,NNE,8.1,-,N/A,,Clear,30,2013-01-17 23:52:00
5:52 PM,9.0,5.0,84,30.72,10.0,North,9.2,-,N/A,,Clear,360,2013-01-18 00:52:00
6:52 PM,3.9,1.0,88,30.74,10.0,North,8.1,-,N/A,,Clear,350,2013-01-18 01:52:00
7:52 PM,5.0,1.0,84,30.75,10.0,NNW,6.9,-,N/A,,Clear,340,2013-01-18 02:52:00
8:52 PM,1.9,-2.0,83,30.77,10.0,North,4.6,-,N/A,,Clear,350,2013-01-18 03:52:00
9:52 PM,1.9,-2.0,83,30.75,10.0,NW,9.2,-,N/A,,Clear,310,2013-01-18 04:52:00
10:36 PM,-0.4,-4.0,85,30.48,1.5,East,5.8,-,N/A,,Partly Cloudy,90,2013-01-18 05:36:00
10:52 PM,-0.9,-5.1,83,30.73,6.0,Calm,Calm,-,N/A,,Partly Cloudy,0,2013-01-18 05:52:00
11:02 PM,-0.4,-5.8,78,30.48,6.0,Calm,Calm,-,N/A,,Haze,0,2013-01-18 06:02:00
11:15 PM,-2.2,-7.6,78,30.47,1.8,Calm,Calm,-,N/A,,Mostly Cloudy,0,2013-01-18 06:15:00
11:23 PM,-0.4,-5.8,78,30.47,0.5,Calm,Calm,-,N/A,,Haze,0,2013-01-18 06:23:00
11:52 PM,-0.0,-4.0,83,30.71,0.2,North,4.6,-,N/A,Fog,Light Freezing Fog,350,2013-01-18 06:52:00